Location: Haut Kerinec
(48.0623°N, 4.4081°W)
Time: 10:47:13
(UTC+00:00)

STARLINK-1097 - Pass Details

Date: 01 June 2020
Orbit: 549 x 551 km, 53.0° (Epoch: 05 July)

Event Time Altitude Azimuth Distance (km) Brightness Sun altitude
Rises 21:23:01 0° 296° (WNW) 2,756 8.6 -9.8°
Reaches altitude 10° 21:25:15 10° 296° (WNW) 1,865 7.5 -10.0°
Maximum altitude 21:29:30 84° 208° (SSW) 580 3.7 -10.5°
Enters shadow 21:33:12 14° 121° (ESE) 1,647 5.5 -10.9°
